Regional Weather Roundup
Issued by NWS

Current Version | Previous Version | Text Only | Print | Product List | Glossary On
Versions: 1 2 3 4 5 6 7 8 9 10 11 12 13 14 15 16 17 18 19 20 21 22 23 24 25 26 27 28 29 30 31 32 33 34 35 36 37 38 39 40 41 42 43 44 45 46 47 48 49 50
000
ASUS44 KMEG 262300
RWRTN
TENNESSEE HOURLY STATE WEATHER ROUNDUP
NATIONAL WEATHER SERVICE MEMPHIS TN
500 PM CST FRI DEC 26 2014

TNZ002-004-019-021-049-052-054-088>092-270000-
WEST TENNESSEE

CITY           SKY/WX    TMP DP  RH WIND       PRES   REMARKS
MEMPHIS INTL   CLOUDY    53  39  59 SE10      30.13F
NWS MEMPHIS      N/A     52 N/A N/A MISG        N/A
JACKSON        MOCLDY    51  37  58 SE6       30.14F
DYERSBURG      PTCLDY    52  30  43 SE10      30.14S
UNION CITY     CLEAR     48  39  71 SE9       30.13F
PARIS          CLEAR     46  36  66 S13       30.17S
LEXINGTON      CLEAR     46  37  71 S6        30.20F
SAVANNAH       CLEAR     46  39  76 CALM      30.21F
$$

TNZ008-025-027-028-033-062-065-066-270000-
NORTH MIDDLE TENNESSEE

CITY           SKY/WX    TMP DP  RH WIND       PRES   REMARKS
NASHVILLE      CLOUDY    48  37  65 S6        30.24S
CLARKSVILLE    CLOUDY    52  38  58 S8        30.19F
COOKEVILLE     CLEAR     43  37  81 S3        30.23F
CROSSVILLE     MOCLDY    44  35  70 SE3       30.25S
$$

TNZ061-075-076-078-094-096-097-270000-
SOUTH MIDDLE TENNESSEE

CITY           SKY/WX    TMP DP  RH WIND       PRES   REMARKS
FAYETTEVILLE   CLEAR     46  36  66 MISG      30.23S
TULLAHOMA      CLEAR     46  36  66 SE3       30.23F
WINCHESTER     CLEAR     45  37  76 CALM      30.24F
SHELBYVILLE    CLEAR     46  41  81 CALM      30.24F
$$

TNZ017-018-042-046-047-270000-
NORTHEAST TENNESSEE

CITY           SKY/WX    TMP DP  RH WIND       PRES   REMARKS
TRI CITIES     MOCLDY    46  30  53 S3        30.29S
ELIZABETHTON   CLEAR     39  30  70 N3        30.30R
$$

TNZ012-013-036-069-073-074-270000-
CENTRAL EAST TENNESSEE

CITY           SKY/WX    TMP DP  RH WIND       PRES   REMARKS
KNOXVILLE      CLOUDY    45  35  68 NE7       30.27F
OAK RIDGE      MOCLDY    45  37  73 CALM      30.29F
GATLINBURG     CLEAR     43  34  70 CALM      30.28F
$$

TNZ083-085-099-270000-
SOUTHEAST TENNESSEE

CITY           SKY/WX    TMP DP  RH WIND       PRES   REMARKS
CHATTANOOGA    CLOUDY    48  38  68 N3        30.27R
$$

SKY/WX REPORTED AS FAIR MEANS FEW OR NO CLOUDS BELOW
12 THOUSAND FEET.



USA.gov is the U.S. government's official web portal to all federal, state and local government web resources and services.